| time (UTC) | temp C | wind direction | speed KPH | gust KPH | rain 1hr cm | rain 24hr cm | rain mn cm | humidity % | barometer mb |
| 20260906040059 | 21 | 32 | 9.7 | 25.7 | 0.00 | 0.00 | 0.00 | 53 | 1021.9 |
| 20260906035525 | 21 | 68 | 12.9 | 25.7 | 0.00 | 0.00 | 0.00 | 53 | 1021.8 |
| 20260906035025 | 21 | 41 | 12.9 | 22.5 | 0.00 | 0.00 | 0.00 | 53 | 1021.8 |
| 20260906034551 | 21 | 51 | 11.3 | 24.1 | 0.00 | 0.00 | 0.00 | 53 | 1021.8 |
| 20260906034024 | 21 | 41 | 11.3 | 24.1 | 0.00 | 0.00 | 0.00 | 52 | 1021.8 |
| 20260906033525 | 21 | 75 | 8.0 | 22.5 | 0.00 | 0.00 | 0.00 | 52 | 1021.7 |
| 20260906033045 | 21 | 65 | 11.3 | 29.0 | 0.00 | 0.00 | 0.00 | 52 | 1021.7 |
| 20260906032525 | 21 | 81 | 11.3 | 29.0 | 0.00 | 0.00 | 0.00 | 52 | 1021.6 |
| 20260906032027 | 21 | 81 | 12.9 | 29.0 | 0.00 | 0.00 | 0.00 | 52 | 1021.7 |
| 20260906031610 | 21 | 16 | 12.9 | 25.7 | 0.00 | 0.00 | 0.00 | 52 | 1021.6 |
| 20260906031025 | 21 | 63 | 14.5 | 29.0 | 0.00 | 0.00 | 0.00 | 52 | 1021.6 |
| 20260906030525 | 21 | 53 | 11.3 | 29.0 | 0.00 | 0.00 | 0.00 | 52 | 1021.5 |
| 20260906030050 | 21 | 80 | 12.9 | 27.4 | 0.00 | 0.00 | 0.00 | 52 | 1021.5 |
| 20260906025524 | 21 | 66 | 9.7 | 29.0 | 0.00 | 0.00 | 0.00 | 52 | 1021.5 |
| 20260906025028 | 21 | 60 | 11.3 | 29.0 | 0.00 | 0.00 | 0.00 | 52 | 1021.4 |
| 20260906024557 | 21 | 127 | 12.9 | 25.7 | 0.00 | 0.00 | 0.00 | 52 | 1021.4 |
| 20260906024025 | 21 | 59 | 12.9 | 27.4 | 0.00 | 0.00 | 0.00 | 52 | 1021.5 |
| 20260906023530 | 22 | 94 | 12.9 | 27.4 | 0.00 | 0.00 | 0.00 | 52 | 1021.3 |
| 20260906023057 | 22 | 323 | 6.4 | 20.9 | 0.00 | 0.00 | 0.00 | 52 | 1021.4 |
| 20260906022525 | 22 | 115 | 6.4 | 22.5 | 0.00 | 0.00 | 0.00 | 52 | 1021.4 |
| 20260906022025 | 22 | 102 | 8.0 | 24.1 | 0.00 | 0.00 | 0.00 | 52 | 1021.4 |
| 20260906021546 | 22 | 39 | 9.7 | 24.1 | 0.00 | 0.00 | 0.00 | 52 | 1021.3 |
| 20260906021023 | 22 | 49 | 11.3 | 24.1 | 0.00 | 0.00 | 0.00 | 52 | 1021.3 |
| 20260906020527 | 22 | 48 | 6.4 | 20.9 | 0.00 | 0.00 | 0.00 | 52 | 1021.0 |
| 20260906020505 | 22 | 55 | 8.0 | 19.3 | 0.00 | 0.00 | 0.00 | 52 | 1021.1 |
| 20260906015525 | 22 | 297 | 6.4 | 19.3 | 0.00 | 0.00 | 0.00 | 52 | 1021.1 |
| 20260906015024 | 22 | 49 | 8.0 | 17.7 | 0.00 | 0.00 | 0.00 | 52 | 1021.0 |
| 20260906014546 | 22 | 25 | 9.7 | 19.3 | 0.00 | 0.00 | 0.00 | 52 | 1021.1 |
| 20260906014026 | 22 | 18 | 8.0 | 20.9 | 0.00 | 0.00 | 0.00 | 52 | 1021.2 |
| 20260906013527 | 22 | 18 | 8.0 | 22.5 | 0.00 | 0.00 | 0.00 | 53 | 1021.3 |
| 20260906013050 | 22 | 30 | 11.3 | 22.5 | 0.00 | 0.00 | 0.00 | 53 | 1021.2 |
| 20260906012525 | 22 | 52 | 9.7 | 22.5 | 0.00 | 0.00 | 0.00 | 53 | 1021.1 |
| 20260906012024 | 22 | 58 | 12.9 | 22.5 | 0.00 | 0.00 | 0.00 | 52 | 1021.1 |
| 20260906011548 | 22 | 64 | 11.3 | 22.5 | 0.00 | 0.00 | 0.00 | 53 | 1021.1 |
| 20260906011023 | 22 | 82 | 11.3 | 20.9 | 0.00 | 0.00 | 0.00 | 52 | 1021.1 |
| 20260906010525 | 22 | 4 | 11.3 | 20.9 | 0.00 | 0.00 | 0.00 | 52 | 1021.1 |
| 20260906010051 | 22 | 78 | 11.3 | 20.9 | 0.00 | 0.00 | 0.00 | 52 | 1021.0 |
| 20260906005524 | 22 | 38 | 11.3 | 20.9 | 0.00 | 0.00 | 0.00 | 52 | 1021.1 |
| 20260906005025 | 22 | 57 | 11.3 | 20.9 | 0.00 | 0.00 | 0.00 | 52 | 1021.0 |
| 20260906004557 | 22 | 61 | 9.7 | 17.7 | 0.00 | 0.00 | 0.00 | 52 | 1021.1 |
| 20260906004026 | 22 | 6 | 9.7 | 19.3 | 0.00 | 0.00 | 0.00 | 52 | 1021.1 |
| 20260906003525 | 22 | 11 | 9.7 | 20.9 | 0.00 | 0.00 | 0.00 | 52 | 1021.0 |
| 20260906003050 | 22 | 53 | 11.3 | 20.9 | 0.00 | 0.00 | 0.00 | 52 | 1021.2 |
| 20260906002524 | 22 | 49 | 8.0 | 20.9 | 0.00 | 0.00 | 0.00 | 52 | 1021.0 |
| 20260906002026 | 22 | 36 | 9.7 | 17.7 | 0.00 | 0.00 | 0.00 | 53 | 1021.1 |
| 20260906001548 | 22 | 25 | 8.0 | 17.7 | 0.00 | 0.00 | 0.00 | 53 | 1021.1 |
| 20260906001025 | 22 | 68 | 8.0 | 17.7 | 0.00 | 0.00 | 0.00 | 53 | 1021.0 |
| 20260906000524 | 22 | 17 | 6.4 | 17.7 | 0.00 | 0.00 | 0.00 | 53 | 1021.0 |
| 20260906000054 | 22 | 49 | 6.4 | 17.7 | 0.00 | 0.00 | 0.00 | 52 | 1020.9 |
| 20260905235524 | 22 | 49 | 8.0 | 20.9 | 0.00 | 0.00 | 0.00 | 52 | 1021.0 |
| 20260905235028 | 22 | 105 | 9.7 | 20.9 | 0.00 | 0.00 | 0.00 | 52 | 1021.1 |
| 20260905234559 | 22 | 61 | 8.0 | 20.9 | 0.00 | 0.00 | 0.00 | 52 | 1021.3 |
| 20260905234025 | 22 | 84 | 9.7 | 22.5 | 0.00 | 0.00 | 0.00 | 52 | 1021.0 |
| 20260905233524 | 22 | 62 | 11.3 | 22.5 | 0.00 | 0.00 | 0.00 | 51 | 1021.0 |
| 20260905233049 | 22 | 60 | 9.7 | 19.3 | 0.00 | 0.00 | 0.00 | 51 | 1021.0 |
| 20260905232526 | 22 | 8 | 8.0 | 19.3 | 0.00 | 0.00 | 0.00 | 50 | 1021.0 |
| 20260905232024 | 22 | 39 | 8.0 | 16.1 | 0.00 | 0.00 | 0.00 | 49 | 1021.0 |
| 20260905231546 | 22 | 52 | 9.7 | 19.3 | 0.00 | 0.00 | 0.00 | 48 | 1021.0 |
| 20260905231025 | 23 | 61 | 9.7 | 19.3 | 0.00 | 0.00 | 0.00 | 47 | 1021.0 |
| 20260905230524 | 23 | 8 | 8.0 | 17.7 | 0.00 | 0.00 | 0.00 | 47 | 1021.0 |
| 20260905230052 | 23 | 32 | 6.4 | 14.5 | 0.00 | 0.00 | 0.00 | 46 | 1021.0 |
| 20260905225528 | 23 | 72 | 6.4 | 14.5 | 0.00 | 0.00 | 0.00 | 45 | 1021.1 |
| 20260905225025 | 23 | 64 | 8.0 | 14.5 | 0.00 | 0.00 | 0.00 | 45 | 1021.2 |
| 20260905224546 | 23 | 77 | 8.0 | 12.9 | 0.00 | 0.00 | 0.00 | 45 | 1021.1 |
| 20260905224025 | 23 | 348 | 6.4 | 16.1 | 0.00 | 0.00 | 0.00 | 45 | 1021.1 |
| 20260905223525 | 23 | 34 | 9.7 | 16.1 | 0.00 | 0.00 | 0.00 | 44 | 1021.1 |
| 20260905223044 | 23 | 33 | 8.0 | 16.1 | 0.00 | 0.00 | 0.00 | 44 | 1021.2 |
| 20260905222523 | 23 | 74 | 8.0 | 14.5 | 0.00 | 0.00 | 0.00 | 44 | 1021.1 |
| 20260905222024 | 23 | 69 | 4.8 | 12.9 | 0.00 | 0.00 | 0.00 | 43 | 1021.0 |
| 20260905221549 | 23 | 46 | 6.4 | 14.5 | 0.00 | 0.00 | 0.00 | 43 | 1021.0 |
| 20260905221026 | 23 | 59 | 6.4 | 14.5 | 0.00 | 0.00 | 0.00 | 43 | 1021.0 |
| 20260905220524 | 23 | 53 | 8.0 | 16.1 | 0.00 | 0.00 | 0.00 | 41 | 1021.0 |
| 20260905220046 | 24 | 98 | 8.0 | 16.1 | 0.00 | 0.00 | 0.00 | 40 | 1021.0 |
| 20260905215523 | 24 | 58 | 8.0 | 16.1 | 0.00 | 0.00 | 0.00 | 40 | 1021.1 |
| 20260905215025 | 23 | 50 | 8.0 | 16.1 | 0.00 | 0.00 | 0.00 | 40 | 1021.1 |
| 20260905214552 | 23 | 49 | 6.4 | 16.1 | 0.00 | 0.00 | 0.00 | 40 | 1021.0 |
| 20260905214025 | 23 | 60 | 6.4 | 16.1 | 0.00 | 0.00 | 0.00 | 40 | 1021.1 |
| 20260905213526 | 23 | 45 | 4.8 | 12.9 | 0.00 | 0.00 | 0.00 | 39 | 1021.1 |
| 20260905213048 | 24 | 69 | 6.4 | 12.9 | 0.00 | 0.00 | 0.00 | 39 | 1021.0 |
| 20260905212526 | 23 | 32 | 6.4 | 12.9 | 0.00 | 0.00 | 0.00 | 38 | 1021.0 |
| 20260905212026 | 23 | 38 | 4.8 | 14.5 | 0.00 | 0.00 | 0.00 | 38 | 1021.0 |
| 20260905211603 | 23 | 70 | 6.4 | 14.5 | 0.00 | 0.00 | 0.00 | 38 | 1021.0 |
| 20260905211026 | 24 | 32 | 1.6 | 4.8 | 0.00 | 0.00 | 0.00 | 38 | 1020.9 |
| 20260905210526 | 23 | 36 | 1.6 | 8.0 | 0.00 | 0.00 | 0.00 | 38 | 1020.8 |
| 20260905205524 | 23 | 48 | 4.8 | 9.7 | 0.00 | 0.00 | 0.00 | 39 | 1020.7 |
| 20260905205024 | 22 | 40 | 3.2 | 6.4 | 0.00 | 0.00 | 0.00 | 42 | 1020.7 |
| 20260905204551 | 21 | 119 | 1.6 | 4.8 | 0.00 | 0.00 | 0.00 | 44 | 1020.7 |
| 20260905204025 | 22 | 102 | 1.6 | 4.8 | 0.00 | 0.00 | 0.00 | 43 | 1020.7 |
| 20260905203524 | 22 | 115 | 1.6 | 4.8 | 0.00 | 0.00 | 0.00 | 42 | 1020.6 |
| 20260905203108 | 22 | 101 | 3.2 | 4.8 | 0.00 | 0.00 | 0.00 | 43 | 1020.8 |
| 20260905202528 | 22 | 120 | 3.2 | 4.8 | 0.00 | 0.00 | 0.00 | 43 | 1020.8 |
| 20260905202025 | 22 | 110 | 3.2 | 4.8 | 0.00 | 0.00 | 0.00 | 43 | 1020.7 |
| 20260905201551 | 22 | 111 | 3.2 | 4.8 | 0.00 | 0.00 | 0.00 | 44 | 1020.7 |
| 20260905201023 | 22 | 113 | 1.6 | 3.2 | 0.00 | 0.00 | 0.00 | 42 | 1020.7 |
| 20260905200523 | 23 | 113 | 1.6 | 3.2 | 0.00 | 0.00 | 0.00 | 41 | 1020.7 |
| 20260905200048 | 23 | 113 | 0.0 | 3.2 | 0.00 | 0.00 | 0.00 | 40 | 1020.7 |
| 20260905195523 | 24 | 113 | 0.0 | 3.2 | 0.00 | 0.00 | 0.00 | 38 | 1020.8 |
| 20260905195024 | 25 | 350 | 0.0 | 4.8 | 0.00 | 0.00 | 0.00 | 37 | 1020.7 |
| 20260905194551 | 25 | 0 | 0.0 | 6.4 | 0.00 | 0.00 | 0.00 | 37 | 1020.7 |
| 20260905194025 | 25 | 350 | 1.6 | 6.4 | 0.00 | 0.00 | 0.00 | 37 | 1020.7 |
| 20260905193525 | 24 | 350 | 1.6 | 6.4 | 0.00 | 0.00 | 0.00 | 38 | 1020.7 |
| 20260905193048 | 24 | 334 | 1.6 | 6.4 | 0.00 | 0.00 | 0.00 | 38 | 1020.7 |
| 20260905192524 | 24 | 331 | 1.6 | 6.4 | 0.00 | 0.00 | 0.00 | 38 | 1020.7 |
| 20260905192027 | 24 | 19 | 1.6 | 4.8 | 0.00 | 0.00 | 0.00 | 38 | 1020.7 |
| 20260905191546 | 24 | 19 | 0.0 | 3.2 | 0.00 | 0.00 | 0.00 | 39 | 1020.6 |
| 20260905191029 | 24 | 19 | 0.0 | 3.2 | 0.00 | 0.00 | 0.00 | 39 | 1020.5 |
| 20260905190524 | 24 | 19 | 0.0 | 3.2 | 0.00 | 0.00 | 0.00 | 40 | 1020.4 |
| 20260905190047 | 23 | 0 | 0.0 | 3.2 | 0.00 | 0.00 | 0.00 | 40 | 1020.3 |
| 20260905185524 | 23 | 0 | 0.0 | 3.2 | 0.00 | 0.00 | 0.00 | 42 | 1020.4 |
| 20260905185024 | 23 | 19 | 0.0 | 3.2 | 0.00 | 0.00 | 0.00 | 43 | 1020.4 |
| 20260905184555 | 23 | 0 | 0.0 | 0.0 | 0.00 | 0.00 | 0.00 | 44 | 1020.4 |
| 20260905184024 | 23 | 0 | 0.0 | 1.6 | 0.00 | 0.00 | 0.00 | 44 | 1020.3 |
| 20260905183526 | 24 | 0 | 0.0 | 1.6 | 0.00 | 0.00 | 0.00 | 43 | 1020.3 |
| 20260905183051 | 24 | 19 | 0.0 | 1.6 | 0.00 | 0.00 | 0.00 | 43 | 1020.4 |
| 20260905182526 | 23 | 0 | 0.0 | 0.0 | 0.00 | 0.00 | 0.00 | 44 | 1020.3 |
| 20260905182025 | 23 | 0 | 0.0 | 0.0 | 0.00 | 0.00 | 0.00 | 44 | 1020.2 |
| 20260905181557 | 23 | 0 | 0.0 | 0.0 | 0.00 | 0.00 | 0.00 | 44 | 1020.2 |
| 20260905181026 | 23 | 0 | 0.0 | 0.0 | 0.00 | 0.00 | 0.00 | 44 | 1020.1 |
| 20260905180526 | 23 | 0 | 0.0 | 0.0 | 0.00 | 0.00 | 0.00 | 44 | 1020.0 |
| 20260905175527 | 24 | 0 | 0.0 | 0.0 | 0.00 | 0.00 | 0.00 | 42 | 1020.0 |
| 20260905175026 | 25 | 0 | 0.0 | 0.0 | 0.00 | 0.00 | 0.00 | 42 | 1020.0 |
| 20260905174553 | 25 | 0 | 0.0 | 0.0 | 0.00 | 0.00 | 0.00 | 41 | 1020.0 |
| 20260905174025 | 25 | 0 | 0.0 | 0.0 | 0.00 | 0.00 | 0.00 | 40 | 1020.0 |
| 20260905173528 | 26 | 0 | 0.0 | 0.0 | 0.00 | 0.00 | 0.00 | 39 | 1020.1 |
| 20260905173058 | 26 | 0 | 0.0 | 0.0 | 0.00 | 0.00 | 0.00 | 39 | 1019.9 |
| 20260905172524 | 26 | 0 | 0.0 | 1.6 | 0.00 | 0.00 | 0.00 | 38 | 1020.0 |
| 20260905172024 | 27 | 0 | 0.0 | 1.6 | 0.00 | 0.00 | 0.00 | 37 | 1020.0 |
| 20260905171550 | 27 | 0 | 0.0 | 4.8 | 0.00 | 0.00 | 0.00 | 36 | 1019.9 |
| 20260905171024 | 28 | 0 | 0.0 | 4.8 | 0.00 | 0.00 | 0.00 | 35 | 1020.0 |
| 20260905170525 | 28 | 214 | 0.0 | 3.2 | 0.00 | 0.00 | 0.00 | 34 | 1019.9 |
| 20260905170046 | 28 | 0 | 0.0 | 6.4 | 0.00 | 0.00 | 0.00 | 34 | 1020.0 |
| 20260905165525 | 28 | 259 | 0.0 | 6.4 | 0.00 | 0.00 | 0.00 | 33 | 1019.9 |
| 20260905165027 | 28 | 241 | 1.6 | 8.0 | 0.00 | 0.00 | 0.00 | 33 | 1019.9 |
| 20260905164546 | 29 | 0 | 3.2 | 8.0 | 0.00 | 0.00 | 0.00 | 33 | 1019.9 |
| 20260905164029 | 29 | 247 | 1.6 | 9.7 | 0.00 | 0.00 | 0.00 | 32 | 1019.8 |
| 20260905163525 | 29 | 284 | 1.6 | 9.7 | 0.00 | 0.00 | 0.00 | 32 | 1019.8 |
| 20260905163051 | 29 | 307 | 3.2 | 9.7 | 0.00 | 0.00 | 0.00 | 32 | 1019.9 |
| 20260905162527 | 29 | 281 | 1.6 | 16.1 | 0.00 | 0.00 | 0.00 | 32 | 1019.9 |
| 20260905162027 | 29 | 255 | 6.4 | 16.1 | 0.00 | 0.00 | 0.00 | 32 | 1019.8 |
| 20260905161548 | 29 | 262 | 6.4 | 16.1 | 0.00 | 0.00 | 0.00 | 32 | 1019.8 |
| 20260905161026 | 30 | 263 | 4.8 | 17.7 | 0.00 | 0.00 | 0.00 | 31 | 1019.8 |
| 20260905160526 | 30 | 171 | 8.0 | 19.3 | 0.00 | 0.00 | 0.00 | 31 | 1019.8 |
| 20260905160048 | 30 | 293 | 6.4 | 19.3 | 0.00 | 0.00 | 0.00 | 31 | 1019.8 |
| 20260905155526 | 30 | 196 | 4.8 | 17.7 | 0.00 | 0.00 | 0.00 | 30 | 1019.8 |
| 20260905155024 | 30 | 252 | 6.4 | 17.7 | 0.00 | 0.00 | 0.00 | 30 | 1019.8 |
| 20260905154558 | 30 | 251 | 6.4 | 19.3 | 0.00 | 0.00 | 0.00 | 30 | 1019.7 |
| 20260905154029 | 30 | 243 | 6.4 | 19.3 | 0.00 | 0.00 | 0.00 | 31 | 1019.5 |
| 20260905153525 | 30 | 298 | 4.8 | 19.3 | 0.00 | 0.00 | 0.00 | 31 | 1019.6 |
| 20260905153047 | 30 | 212 | 4.8 | 17.7 | 0.00 | 0.00 | 0.00 | 31 | 1019.6 |
| 20260905152525 | 30 | 231 | 8.0 | 22.5 | 0.00 | 0.00 | 0.00 | 31 | 1019.4 |
| 20260905152029 | 30 | 239 | 8.0 | 22.5 | 0.00 | 0.00 | 0.00 | 30 | 1019.5 |
| 20260905151549 | 30 | 186 | 9.7 | 22.5 | 0.00 | 0.00 | 0.00 | 30 | 1019.5 |
| 20260905151028 | 30 | 197 | 8.0 | 25.7 | 0.00 | 0.00 | 0.00 | 30 | 1019.5 |
| 20260905150526 | 30 | 242 | 9.7 | 25.7 | 0.00 | 0.00 | 0.00 | 30 | 1019.5 |
| 20260905150047 | 31 | 255 | 8.0 | 24.1 | 0.00 | 0.00 | 0.00 | 30 | 1019.4 |
| 20260905145526 | 31 | 195 | 9.7 | 24.1 | 0.00 | 0.00 | 0.00 | 29 | 1019.5 |
| 20260905145025 | 30 | 202 | 9.7 | 24.1 | 0.00 | 0.00 | 0.00 | 30 | 1019.6 |
| 20260905144552 | 30 | 265 | 8.0 | 24.1 | 0.00 | 0.00 | 0.00 | 30 | 1019.6 |
| 20260905144025 | 30 | 250 | 11.3 | 24.1 | 0.00 | 0.00 | 0.00 | 30 | 1019.5 |
| 20260905143524 | 31 | 250 | 11.3 | 24.1 | 0.00 | 0.00 | 0.00 | 30 | 1019.6 |
| 20260905143050 | 31 | 210 | 6.4 | 25.7 | 0.00 | 0.00 | 0.00 | 30 | 1019.6 |
| 20260905142523 | 31 | 281 | 11.3 | 25.7 | 0.00 | 0.00 | 0.00 | 30 | 1019.6 |
| 20260905142026 | 31 | 165 | 9.7 | 25.7 | 0.00 | 0.00 | 0.00 | 30 | 1019.6 |
| 20260905141550 | 31 | 269 | 11.3 | 25.7 | 0.00 | 0.00 | 0.00 | 30 | 1019.6 |
| 20260905141028 | 31 | 242 | 11.3 | 24.1 | 0.00 | 0.00 | 0.00 | 30 | 1019.7 |
| 20260905140527 | 31 | 213 | 9.7 | 24.1 | 0.00 | 0.00 | 0.00 | 30 | 1019.5 |
| 20260905140050 | 31 | 293 | 11.3 | 22.5 | 0.00 | 0.00 | 0.00 | 30 | 1019.5 |
| 20260905135525 | 31 | 262 | 8.0 | 24.1 | 0.00 | 0.00 | 0.00 | 30 | 1019.6 |
| 20260905135028 | 31 | 199 | 11.3 | 24.1 | 0.00 | 0.00 | 0.00 | 30 | 1019.6 |
| 20260905134556 | 31 | 243 | 8.0 | 25.7 | 0.00 | 0.00 | 0.00 | 30 | 1019.7 |
| 20260905134028 | 31 | 236 | 11.3 | 25.7 | 0.00 | 0.00 | 0.00 | 30 | 1019.8 |
| 20260905133523 | 31 | 264 | 6.4 | 20.9 | 0.00 | 0.00 | 0.00 | 29 | 1019.8 |
| 20260905133057 | 31 | 294 | 8.0 | 25.7 | 0.00 | 0.00 | 0.00 | 30 | 1019.7 |
| 20260905132525 | 31 | 259 | 8.0 | 25.7 | 0.00 | 0.00 | 0.00 | 30 | 1019.8 |
| 20260905132025 | 31 | 237 | 11.3 | 25.7 | 0.00 | 0.00 | 0.00 | 30 | 1019.8 |
| 20260905131551 | 31 | 207 | 9.7 | 19.3 | 0.00 | 0.00 | 0.00 | 30 | 1020.0 |
| 20260905131025 | 31 | 221 | 9.7 | 27.4 | 0.00 | 0.00 | 0.00 | 30 | 1019.9 |
| 20260905130523 | 31 | 265 | 8.0 | 27.4 | 0.00 | 0.00 | 0.00 | 30 | 1019.9 |
| 20260905130046 | 31 | 225 | 12.9 | 27.4 | 0.00 | 0.00 | 0.00 | 30 | 1020.1 |
| 20260905125526 | 31 | 285 | 6.4 | 24.1 | 0.00 | 0.00 | 0.00 | 29 | 1020.1 |
| 20260905125025 | 31 | 238 | 9.7 | 24.1 | 0.00 | 0.00 | 0.00 | 29 | 1020.1 |
| 20260905124546 | 31 | 154 | 9.7 | 24.1 | 0.00 | 0.00 | 0.00 | 30 | 1020.0 |
| 20260905124026 | 31 | 253 | 9.7 | 24.1 | 0.00 | 0.00 | 0.00 | 29 | 1020.0 |
| 20260905123525 | 31 | 195 | 11.3 | 24.1 | 0.00 | 0.00 | 0.00 | 29 | 1020.2 |
| 20260905123055 | 31 | 200 | 8.0 | 20.9 | 0.00 | 0.00 | 0.00 | 29 | 1020.1 |
| 20260905122528 | 31 | 285 | 6.4 | 20.9 | 0.00 | 0.00 | 0.00 | 29 | 1020.2 |
| 20260905122025 | 31 | 306 | 8.0 | 25.7 | 0.00 | 0.00 | 0.00 | 29 | 1020.2 |
| 20260905121547 | 31 | 210 | 8.0 | 25.7 | 0.00 | 0.00 | 0.00 | 29 | 1020.5 |
| 20260905121024 | 31 | 226 | 9.7 | 24.1 | 0.00 | 0.00 | 0.00 | 29 | 1020.4 |
| 20260905120525 | 31 | 278 | 11.3 | 24.1 | 0.00 | 0.00 | 0.00 | 29 | 1020.3 |
| 20260905120047 | 31 | 246 | 9.7 | 22.5 | 0.00 | 0.00 | 0.00 | 29 | 1020.3 |
| 20260905115527 | 30 | 258 | 11.3 | 24.1 | 0.00 | 0.00 | 0.00 | 29 | 1020.5 |
| 20260905115026 | 31 | 299 | 9.7 | 24.1 | 0.00 | 0.00 | 0.00 | 29 | 1020.4 |
| 20260905114545 | 31 | 304 | 9.7 | 25.7 | 0.00 | 0.00 | 0.00 | 30 | 1020.5 |
| 20260905114028 | 31 | 280 | 9.7 | 25.7 | 0.00 | 0.00 | 0.00 | 29 | 1020.4 |
| 20260905113526 | 31 | 181 | 8.0 | 25.7 | 0.00 | 0.00 | 0.00 | 29 | 1020.4 |
| 20260905113048 | 31 | 232 | 8.0 | 25.7 | 0.00 | 0.00 | 0.00 | 29 | 1020.6 |
| 20260905112526 | 30 | 278 | 9.7 | 25.7 | 0.00 | 0.00 | 0.00 | 29 | 1020.5 |
| 20260905112023 | 31 | 248 | 11.3 | 22.5 | 0.00 | 0.00 | 0.00 | 30 | 1020.5 |
| 20260905111545 | 31 | 247 | 8.0 | 22.5 | 0.00 | 0.00 | 0.00 | 29 | 1020.6 |
| 20260905111025 | 31 | 214 | 6.4 | 20.9 | 0.00 | 0.00 | 0.00 | 29 | 1020.5 |
| 20260905110527 | 30 | 224 | 8.0 | 29.0 | 0.00 | 0.00 | 0.00 | 29 | 1020.5 |
| 20260905110059 | 30 | 277 | 8.0 | 29.0 | 0.00 | 0.00 | 0.00 | 29 | 1020.6 |
| 20260905105526 | 30 | 244 | 12.9 | 29.0 | 0.00 | 0.00 | 0.00 | 28 | 1020.8 |
| 20260905105025 | 31 | 276 | 6.4 | 20.9 | 0.00 | 0.00 | 0.00 | 28 | 1020.7 |
| 20260905104554 | 30 | 223 | 9.7 | 20.9 | 0.00 | 0.00 | 0.00 | 28 | 1020.6 |
| 20260905104029 | 30 | 236 | 8.0 | 25.7 | 0.00 | 0.00 | 0.00 | 28 | 1020.6 |
| 20260905103525 | 30 | 243 | 8.0 | 25.7 | 0.00 | 0.00 | 0.00 | 28 | 1020.6 |
| 20260905103051 | 30 | 230 | 8.0 | 20.9 | 0.00 | 0.00 | 0.00 | 29 | 1020.7 |
| 20260905102524 | 30 | 271 | 9.7 | 20.9 | 0.00 | 0.00 | 0.00 | 28 | 1020.8 |
| 20260905102027 | 30 | 259 | 8.0 | 20.9 | 0.00 | 0.00 | 0.00 | 28 | 1020.7 |
| 20260905101602 | 30 | 294 | 9.7 | 20.9 | 0.00 | 0.00 | 0.00 | 28 | 1020.9 |
| 20260905101026 | 30 | 267 | 3.2 | 17.7 | 0.00 | 0.00 | 0.00 | 27 | 1020.7 |
| 20260905100526 | 30 | 179 | 4.8 | 17.7 | 0.00 | 0.00 | 0.00 | 27 | 1020.7 |
| 20260905100046 | 30 | 251 | 8.0 | 17.7 | 0.00 | 0.00 | 0.00 | 27 | 1020.8 |
| 20260905095529 | 31 | 243 | 6.4 | 17.7 | 0.00 | 0.00 | 0.00 | 27 | 1020.9 |
| 20260905095024 | 31 | 170 | 6.4 | 16.1 | 0.00 | 0.00 | 0.00 | 26 | 1020.8 |
| 20260905094546 | 30 | 224 | 6.4 | 16.1 | 0.00 | 0.00 | 0.00 | 27 | 1020.8 |
| 20260905094023 | 30 | 278 | 6.4 | 16.1 | 0.00 | 0.00 | 0.00 | 26 | 1020.8 |
| 20260905093527 | 30 | 215 | 8.0 | 16.1 | 0.00 | 0.00 | 0.00 | 26 | 1020.9 |
| 20260905093048 | 30 | 254 | 6.4 | 16.1 | 0.00 | 0.00 | 0.00 | 26 | 1020.8 |
| 20260905092523 | 30 | 247 | 9.7 | 20.9 | 0.00 | 0.00 | 0.00 | 25 | 1020.8 |
| 20260905092026 | 30 | 249 | 9.7 | 20.9 | 0.00 | 0.00 | 0.00 | 26 | 1020.8 |
| 20260905091559 | 30 | 290 | 6.4 | 19.3 | 0.00 | 0.00 | 0.00 | 26 | 1020.8 |
| 20260905091027 | 30 | 287 | 8.0 | 19.3 | 0.00 | 0.00 | 0.00 | 27 | 1020.8 |
| 20260905090526 | 30 | 271 | 8.0 | 19.3 | 0.00 | 0.00 | 0.00 | 26 | 1020.9 |
| 20260905090050 | 30 | 281 | 4.8 | 16.1 | 0.00 | 0.00 | 0.00 | 26 | 1020.8 |
| 20260905085527 | 30 | 283 | 4.8 | 14.5 | 0.00 | 0.00 | 0.00 | 26 | 1020.9 |
| 20260905085026 | 30 | 256 | 3.2 | 14.5 | 0.00 | 0.00 | 0.00 | 26 | 1020.8 |
| 20260905084546 | 30 | 314 | 3.2 | 11.3 | 0.00 | 0.00 | 0.00 | 26 | 1020.8 |
| 20260905084024 | 30 | 203 | 3.2 | 12.9 | 0.00 | 0.00 | 0.00 | 26 | 1020.9 |
| 20260905083524 | 29 | 265 | 3.2 | 12.9 | 0.00 | 0.00 | 0.00 | 25 | 1020.9 |
| 20260905083045 | 30 | 335 | 3.2 | 9.7 | 0.00 | 0.00 | 0.00 | 25 | 1020.9 |
| 20260905082525 | 29 | 262 | 4.8 | 9.7 | 0.00 | 0.00 | 0.00 | 25 | 1020.9 |
| 20260905082026 | 29 | 280 | 3.2 | 9.7 | 0.00 | 0.00 | 0.00 | 25 | 1020.9 |
| 20260905081546 | 29 | 290 | 3.2 | 8.0 | 0.00 | 0.00 | 0.00 | 26 | 1021.0 |
| 20260905081023 | 28 | 278 | 3.2 | 8.0 | 0.00 | 0.00 | 0.00 | 26 | 1020.8 |
| 20260905080523 | 28 | 280 | 4.8 | 12.9 | 0.00 | 0.00 | 0.00 | 26 | 1020.9 |
| 20260905075524 | 28 | 243 | 3.2 | 9.7 | 0.00 | 0.00 | 0.00 | 27 | 1020.8 |
| 20260905075025 | 28 | 271 | 3.2 | 9.7 | 0.00 | 0.00 | 0.00 | 27 | 1020.8 |
| 20260905074547 | 28 | 0 | 0.0 | 12.9 | 0.00 | 0.00 | 0.00 | 27 | 1020.7 |
| 20260905074026 | 28 | 308 | 1.6 | 12.9 | 0.00 | 0.00 | 0.00 | 27 | 1020.7 |
| 20260905073525 | 28 | 283 | 0.0 | 6.4 | 0.00 | 0.00 | 0.00 | 28 | 1020.7 |
| 20260905073047 | 28 | 292 | 0.0 | 4.8 | 0.00 | 0.00 | 0.00 | 28 | 1020.7 |
| 20260905072526 | 28 | 165 | 0.0 | 4.8 | 0.00 | 0.00 | 0.00 | 30 | 1020.6 |
| 20260905072029 | 27 | 281 | 0.0 | 4.8 | 0.00 | 0.00 | 0.00 | 30 | 1020.6 |
| 20260905071545 | 27 | 288 | 1.6 | 6.4 | 0.00 | 0.00 | 0.00 | 29 | 1020.6 |
| 20260905071023 | 28 | 278 | 3.2 | 6.4 | 0.00 | 0.00 | 0.00 | 28 | 1020.6 |
| 20260905070524 | 28 | 0 | 0.0 | 3.2 | 0.00 | 0.00 | 0.00 | 28 | 1020.5 |
| 20260905070051 | 27 | 0 | 0.0 | 3.2 | 0.00 | 0.00 | 0.00 | 28 | 1020.5 |
| 20260905065525 | 27 | 0 | 0.0 | 3.2 | 0.00 | 0.00 | 0.00 | 29 | 1020.5 |
| 20260905065026 | 27 | 269 | 0.0 | 3.2 | 0.00 | 0.00 | 0.00 | 30 | 1020.5 |
| 20260905064549 | 26 | 253 | 0.0 | 3.2 | 0.00 | 0.00 | 0.00 | 33 | 1020.7 |
| 20260905064027 | 26 | 0 | 0.0 | 1.6 | 0.00 | 0.00 | 0.00 | 37 | 1020.6 |
| 20260905063526 | 26 | 0 | 0.0 | 0.0 | 0.00 | 0.00 | 0.00 | 38 | 1020.6 |
| 20260905063056 | 26 | 0 | 0.0 | 0.0 | 0.00 | 0.00 | 0.00 | 37 | 1020.6 |
| 20260905062526 | 26 | 0 | 0.0 | 0.0 | 0.00 | 0.00 | 0.00 | 38 | 1020.7 |
| 20260905062026 | 25 | 0 | 0.0 | 0.0 | 0.00 | 0.00 | 0.00 | 39 | 1020.6 |
| 20260905061544 | 25 | 0 | 0.0 | 0.0 | 0.00 | 0.00 | 0.00 | 41 | 1020.7 |
| 20260905061023 | 24 | 0 | 0.0 | 0.0 | 0.00 | 0.00 | 0.00 | 42 | 1020.8 |
| 20260905060526 | 24 | 0 | 0.0 | 0.0 | 0.00 | 0.00 | 0.00 | 42 | 1020.7 |
| 20260905060047 | 23 | 0 | 0.0 | 0.0 | 0.00 | 0.00 | 0.00 | 42 | 1020.7 |
| 20260905055523 | 23 | 0 | 0.0 | 0.0 | 0.00 | 0.00 | 0.00 | 42 | 1020.6 |
| 20260905055024 | 23 | 0 | 0.0 | 0.0 | 0.00 | 0.00 | 0.00 | 41 | 1020.7 |
| 20260905054555 | 23 | 0 | 0.0 | 3.2 | 0.00 | 0.00 | 0.00 | 39 | 1020.6 |
| 20260905054025 | 23 | 0 | 0.0 | 3.2 | 0.00 | 0.00 | 0.00 | 41 | 1020.7 |
| 20260905053524 | 22 | 80 | 0.0 | 4.8 | 0.00 | 0.00 | 0.00 | 40 | 1020.6 |
| 20260905053049 | 22 | 0 | 0.0 | 6.4 | 0.00 | 0.00 | 0.00 | 41 | 1020.6 |
| 20260905052524 | 22 | 68 | 3.2 | 6.4 | 0.00 | 0.00 | 0.00 | 42 | 1020.5 |
| 20260905052027 | 21 | 76 | 3.2 | 6.4 | 0.00 | 0.00 | 0.00 | 43 | 1020.5 |
| 20260905051545 | 21 | 54 | 3.2 | 6.4 | 0.00 | 0.00 | 0.00 | 44 | 1020.5 |
| 20260905051024 | 21 | 61 | 3.2 | 9.7 | 0.00 | 0.00 | 0.00 | 45 | 1020.5 |
| 20260905050526 | 21 | 63 | 3.2 | 9.7 | 0.00 | 0.00 | 0.00 | 45 | 1020.5 |
| 20260905050047 | 21 | 100 | 3.2 | 11.3 | 0.00 | 0.00 | 0.00 | 45 | 1020.5 |
| 20260905045523 | 21 | 56 | 4.8 | 11.3 | 0.00 | 0.00 | 0.00 | 46 | 1020.4 |
| 20260905045027 | 21 | 53 | 4.8 | 11.3 | 0.00 | 0.00 | 0.00 | 46 | 1020.4 |
| 20260905044551 | 21 | 77 | 3.2 | 11.3 | 0.00 | 0.00 | 0.00 | 47 | 1020.4 |
| 20260905044026 | 20 | 69 | 6.4 | 11.3 | 0.00 | 0.00 | 0.00 | 49 | 1020.4 |
| 20260905043524 | 20 | 61 | 8.0 | 11.3 | 0.00 | 0.00 | 0.00 | 51 | 1020.3 |
| 20260905043048 | 18 | 47 | 6.4 | 11.3 | 0.00 | 0.00 | 0.00 | 54 | 1020.3 |
| 20260905042523 | 17 | 0 | 0.0 | 3.2 | 0.00 | 0.00 | 0.00 | 58 | 1020.3 |
| 20260905042023 | 17 | 116 | 1.6 | 3.2 | 0.00 | 0.00 | 0.00 | 58 | 1020.3 |
| 20260905041547 | 17 | 116 | 1.6 | 3.2 | 0.00 | 0.00 | 0.00 | 57 | 1020.3 |
| 20260905041025 | 18 | 115 | 1.6 | 3.2 | 0.00 | 0.00 | 0.00 | 56 | 1020.3 |
| 20260905040524 | 18 | 108 | 0.0 | 3.2 | 0.00 | 0.00 | 0.00 | 55 | 1020.3 |